Presure
203 199 187 195 201 185 119 169 183 175 192 186 184 183 185 189 207 187 209 149 195 196 181 182 178 211 190 180 181 191 182 184 215 201 203 191 204 199 193 197 198 166 195
203 195 214 195 188 185 190 188 184 178 177 180 173 191 176 185 204 212 210 205 216 218 210 182 179 177 206 206 194 182 193 191 202 205 204 196 182 169 195 196 189 192 183
192 214 203 187 193 186 189 187 179 185 172 182 191 185 197 198 208 207 201 201 202 216 213 226 183 181 178 195 211 198 179 186 189 192 182 173 189 190 193 196 204 193 192
208 202 190 189 193 184 175 192 194 191 194 193 192 195 204 203 201 200 202 206 200 202 205 209 217 180 181 187 184 204 204 185 184 187 191 200 198 200 208 206 186 192 198
195 183 189 181 184 183 189 187 178 188 169 194 183 176 174 191 182 174 171 184 190 198 195 220 201 209 176 178 191 187 198 202 195 195 195 196 196 197 199 206 202 193 186
183 188 188 196 191 186 182 154 132 197 180 182 186 191 124 169 193 192 186 191 192 180 196 210 206 205 225 184 174 179 190 197 198 196 191 185 193 201 208 182 206 200 195
191 194 197 183 183 184 184 189 197 196 203 192 194 193 195 191 192 190 194 199 199 200 198 211 202 210 220 225 185 207 224 178 194 199 201 185 191 197 184 194 208 198 195
194 196 183 190 194 195 201 184 117 140 194 207 207 204 200 195 126 124 177 200 204 206 205 198 211 204 209 219 212 209 174 208 190 192 198 206 194 189 184 181 193 201 202
200 193 197 200 200 199 194 199 205 208 206 212 218 220 186 230 219 156 125 130 136 221 226 223 217 215 218 210 210 206 216 207 183 216 188 200 207 195 194 185 177 180 201
192 196 205 207 195 205 210 207 208 222 235 233 217 220 222 243 247 243 235 228 225 204 147 241 239 238 216 227 214 215 210 218 221 190 170 193 196 207 208 194 194 189 179
194 119 198 203 211 212 213 218 216 221 227 236 235 231 242 259 261 270 314 326 272 277 303 308 251 249 251 252 230 218 226 224 222 215 196 186 197 192 202 214 197 187 192
111 196 207 209 209 208 217 219 225 237 251 261 261 264 288 324 306 295 328 382 384 376 374 371 309 302 321 351 296 259 229 229 239 234 211 222 209 183 195 195 210 211 195
201 203 210 208 216 223 233 252 258 258 264 300 310 309 364 360 362 362 360 357 354 344 334 329 326 329 275 287 273 349 404 259 239 243 234 233 212 204 203 193 185 212 213
204 213 215 217 228 242 256 261 268 309 309 366 359 358 382 419 429 434 452 469 471 370 353 343 331 330 327 326 330 293 318 393 371 265 242 252 235 241 202 214 204 190 212
219 223 225 247 261 261 271 306 331 370 377 472 460 451 450 449 449 442 438 436 442 457 463 456 457 467 474 481 473 383 350 316 343 370 368 361 289 266 268 221 225 198 205
237 247 266 267 256 289 317 362 389 451 446 451 444 435 424 417 410 405 404 404 409 417 443 442 420 422 435 446 455 467 475 418 329 307 338 359 346 359 282 251 239 233 216
253 262 284 281 318 368 411 430 434 433 439 459 443 430 418 410 401 396 398 399 399 398 412 424 418 401 405 413 418 435 452 464 483 388 311 300 348 294 355 362 274 244 255
271 262 309 311 368 442 426 445 426 416 411 402 407 404 395 389 386 383 379 373 370 371 382 391 396 404 396 393 397 401 413 443 442 445 484 327 302 332 335 344 354 253 263
260 311 374 379 449 428 420 413 418 407 402 395 388 379 370 363 357 354 355 354 352 351 354 361 363 368 388 389 393 389 392 424 424 419 436 453 330 309 332 349 350 361 285
330 369 435 430 425 423 416 439 413 396 378 363 353 350 351 354 356 357 355 354 354 353 352 349 349 355 355 377 385 386 388 388 423 408 416 423 445 363 306 339 310 288 357
366 465 451 433 433 437 461 416 388 361 347 342 346 349 353 360 432 453 452 439 418 420 429 379 358 349 360 357 380 385 383 385 400 411 403 397 422 453 462 321 307 276 340
462 452 461 451 491 439 402 375 350 343 341 346 348 356 438 425 431 444 456 450 450 436 416 414 426 375 347 356 363 379 382 372 387 392 397 403 393 418 439 454 401 321 280
448 440 484 459 413 389 365 344 343 340 339 358 353 424 411 410 419 431 461 468 450 444 445 435 436 447 344 351 358 375 375 370 379 388 391 399 385 375 397 441 425 435 422
413 404 425 396 376 356 341 340 345 338 356 348 413 403 401 409 420 436 465 469 463 443 447 454 444 455 338 351 357 374 362 364 375 371 386 385 391 390 372 388 400 415 429
390 391 387 372 354 340 339 341 335 348 342 382 398 394 409 423 432 444 466 458 465 454 455 468 445 415 338 347 370 364 357 368 363 362 384 388 387 390 399 407 404 395 405
378 385 368 353 336 333 339 335 326 340 338 399 388 389 391 429 449 459 468 468 457 473 477 464 461 335 342 357 360 352 359 358 350 353 367 365 359 370 374 373 378 385 393
Wind_Speed
71 70 70 61 54 58 39 54 58 59 55 53 54 54 55 57 59 57 54 51 51 46 54 49 47 46 53 54 54 53 57 58 61 66 69 66 83 80 76 80 80 69 78
68 73 57 64 63 62 60 58 60 58 59 60 61 64 61 63 61 54 51 51 50 49 51 58 57 56 52 61 66 62 62 61 58 62 73 73 69 77 79 82 82 83 80
74 66 62 67 64 63 64 63 63 63 60 63 64 65 68 67 64 60 56 55 54 51 49 50 63 62 62 55 56 75 68 64 67 68 71 75 72 76 78 85 89 84 84
70 70 73 71 69 66 68 69 67 67 69 68 65 67 70 68 69 66 64 60 58 57 54 52 54 69 68 66 67 63 76 74 72 73 75 74 76 80 86 81 83 83 89
68 72 73 75 77 76 76 73 70 71 65 74 67 67 70 71 70 70 67 67 66 67 65 67 61 60 78 78 74 76 72 78 85 86 82 79 76 77 82 79 87 89 87
73 74 74 77 74 74 76 61 52 81 72 73 76 77 56 70 80 81 78 77 77 70 75 75 71 71 71 84 85 78 82 80 82 85 86 83 82 82 85 81 87 88 90
80 81 82 72 74 76 78 84 87 86 86 83 84 84 86 87 89 89 88 88 87 86 84 82 81 80 81 79 91 80 76 88 89 88 90 90 88 85 85 84 81 92 92
83 85 78 83 85 85 90 85 51 63 92 95 92 91 88 90 56 54 84 95 95 95 94 88 91 89 88 88 85 89 94 85 97 95 95 94 97 93 91 91 87 88 94
88 86 90 93 94 93 91 97 99 101 101 103 104 103 83 103 98 74 60 62 63 103 106 105 104 102 99 95 95 96 93 98 101 99 101 100 100 102 101 98 95 94 93
91 95 100 100 93 101 103 103 106 111 115 115 111 111 111 116 115 110 111 111 108 97 70 112 110 111 106 109 105 103 103 100 100 108 86 107 105 107 109 105 105 101 98
97 53 100 105 109 108 113 118 116 119 122 125 123 124 126 128 123 122 121 116 111 115 116 115 119 112 114 114 116 111 112 112 111 111 118 99 113 108 111 111 112 106 107
58 101 114 115 116 118 124 126 129 133 137 138 135 136 137 133 126 122 115 95 94 94 97 102 106 102 106 106 113 119 120 120 120 118 119 118 113 97 113 112 116 117 114
115 117 121 119 123 125 131 137 138 138 138 135 138 133 113 111 109 106 106 104 100 98 99 100 105 104 99 98 101 98 99 125 126 125 125 123 115 111 124 112 105 122 123
118 121 119 122 131 138 135 134 132 139 137 117 118 116 109 101 96 93 85 78 76 99 99 101 106 108 107 106 104 98 95 100 106 129 129 131 127 129 124 131 123 108 126
125 128 129 133 135 130 135 140 131 115 110 78 77 75 72 69 65 65 63 63 63 60 56 56 58 59 62 63 72 107 103 97 100 100 102 104 137 137 135 138 135 112 123
130 133 138 134 129 141 136 118 103 79 75 72 70 68 65 61 60 60 59 59 57 58 52 47 55 57 59 58 56 56 61 88 103 103 103 105 110 107 134 137 138 136 123
132 133 141 133 137 117 91 75 76 69 60 54 54 54 55 55 54 55 54 53 53 53 52 43 46 54 56 57 59 54 51 55 58 97 108 109 107 120 110 109 144 136 133
140 130 138 137 118 79 75 65 64 62 57 56 53 53 53 55 55 55 53 51 52 52 49 47 42 46 52 55 57 59 56 48 52 60 63 114 111 111 116 114 113 129 135
130 137 118 110 71 77 70 69 60 54 54 53 53 53 53 55 56 58 59 55 54 54 52 49 43 46 48 52 55 58 56 47 52 59 59 65 117 114 116 116 113 111 139
128 116 80 78 74 72 72 60 50 49 50 52 55 58 59 60 60 60 59 60 59 57 54 53 49 48 50 51 54 54 53 53 51 56 56 63 65 108 113 113 112 97 109
113 69 64 67 67 67 50 43 46 49 53 56 59 61 63 65 55 52 52 53 54 50 49 57 54 49 52 54 54 54 53 49 47 50 55 60 55 52 66 114 114 115 110
64 62 55 55 48 37 39 42 50 52 56 57 59 61 48 48 47 45 44 44 43 48 51 50 49 53 48 51 51 52 51 49 47 45 50 53 54 50 50 57 100 117 116
56 50 34 32 34 37 40 48 50 52 54 56 58 49 48 49 48 45 41 38 37 38 42 46 45 45 44 45 46 47 46 42 41 41 43 46 52 55 52 48 63 65 93
51 48 35 38 38 40 45 47 48 50 53 56 51 49 47 46 47 44 37 29 30 34 36 37 37 38 37 41 40 41 38 37 36 39 39 40 46 48 53 51 51 53 61
51 44 40 38 39 44 46 47 48 51 53 53 48 46 43 43 41 38 30 23 22 26 28 29 29 30 30 30 33 32 31 32 32 34 31 29 37 40 42 45 49 52 54
46 38 36 36 43 46 43 45 47 48 50 44 42 39 36 37 34 31 25 18 16 16 17 19 21 23 25 25 26 26 27 29 29 28 25 22 28 28 30 37 41 44 46
Wind_Direction
296 294 301 298 292 297 296 296 293 296 290 291 290 290 290 290 287 282 276 270 262 252 257 253 255 234 238 243 244 245 232 234 230 227 227 233 225 229 233 233 229 235 232
293 294 291 293 293 296 291 288 288 290 291 290 291 292 287 286 288 284 279 275 274 269 253 249 250 252 236 231 237 242 244 244 238 232 229 231 233 236 234 234 234 233 239
293 292 287 294 293 295 292 291 292 290 289 290 290 289 291 289 290 286 280 276 274 276 262 268 247 243 246 234 232 230 238 240 241 237 230 232 238 235 238 235 236 236 237
290 291 297 298 296 294 291 294 294 294 292 290 288 289 290 290 289 288 287 283 274 275 268 262 262 244 243 239 236 232 230 238 238 239 240 241 240 240 236 236 236 237 237
288 296 296 299 297 296 296 296 292 294 291 292 287 282 278 289 281 275 273 278 277 276 268 278 252 256 245 246 238 234 228 230 236 239 240 240 237 237 239 236 235 236 238
297 296 293 291 291 293 292 290 289 292 291 289 290 289 292 286 283 281 279 276 272 265 268 273 260 254 261 235 246 243 236 228 229 232 236 235 236 238 236 234 234 234 234
294 294 295 293 293 293 293 293 293 292 288 289 286 283 280 281 280 278 276 273 271 269 264 268 262 263 266 262 235 233 237 243 231 229 230 234 236 236 232 235 234 233 234
294 293 292 292 294 296 294 295 293 293 292 285 283 279 276 276 283 287 274 270 269 267 265 259 259 253 255 259 248 244 246 237 237 234 229 229 232 233 232 233 232 233 233
294 295 296 297 297 297 297 295 293 292 290 289 288 287 284 281 276 281 284 279 276 266 264 259 256 255 252 246 245 239 241 243 241 232 237 229 228 230 231 232 236 234 232
299 300 297 297 301 298 298 297 296 297 295 292 291 289 287 284 279 275 273 271 271 268 268 262 256 253 250 249 243 241 239 239 235 239 245 234 231 228 229 231 231 231 236
300 303 303 301 300 301 303 302 301 300 298 295 291 288 286 285 283 281 281 278 269 269 270 267 261 257 254 249 244 242 241 238 234 228 234 242 234 236 229 229 230 233 231
303 307 304 307 307 306 304 301 298 296 294 294 292 290 290 289 287 285 282 273 267 264 263 263 264 258 258 256 251 245 241 240 239 234 231 227 236 246 236 234 228 229 232
305 305 304 305 302 301 299 299 298 296 294 292 291 291 288 286 283 281 279 276 272 270 268 266 266 264 251 249 248 252 252 239 241 238 233 231 238 241 233 240 233 228 228
302 300 301 301 301 300 299 297 296 296 296 293 291 289 287 281 279 279 278 278 275 270 266 263 263 262 261 259 256 246 243 246 244 241 239 238 232 230 241 229 235 239 228
303 304 304 302 302 302 303 300 296 297 294 292 290 288 287 285 283 281 279 276 275 271 266 264 259 257 258 257 253 247 245 238 239 240 240 240 238 235 234 233 228 245 235
305 305 305 306 305 304 302 301 300 302 298 294 292 290 288 286 284 282 281 279 276 275 270 260 258 255 255 255 254 252 248 241 237 234 236 237 237 240 234 232 230 227 236
306 308 308 307 304 306 305 303 302 304 303 299 294 291 290 287 285 282 279 277 275 274 274 268 256 256 252 251 251 251 248 243 240 235 233 234 235 235 238 237 231 230 226
310 310 306 305 308 305 306 303 306 305 307 305 301 297 294 291 289 286 282 279 277 275 272 267 259 252 252 249 248 247 246 243 239 236 236 231 233 234 235 235 235 230 229
312 306 311 310 305 305 308 305 306 308 308 306 303 299 296 293 289 287 285 281 276 272 270 265 256 252 249 248 246 247 244 242 237 237 234 235 229 232 233 235 234 234 229
307 312 309 307 305 304 305 299 305 308 310 308 306 301 298 293 289 284 280 277 274 269 263 260 254 246 246 246 245 244 245 242 235 238 238 237 235 231 233 235 236 234 231
313 306 302 303 300 300 304 307 308 311 311 308 305 302 300 296 296 290 281 272 267 263 258 255 251 248 242 242 241 241 242 242 238 236 237 239 239 237 235 233 230 230 230
310 305 303 299 299 307 311 311 310 313 309 308 306 305 314 311 310 304 293 276 263 254 251 249 245 239 239 238 241 239 239 241 241 237 236 236 236 237 236 237 235 231 227
311 309 302 310 314 315 313 313 315 313 310 311 312 321 322 317 315 313 305 284 264 254 247 244 243 241 237 236 237 235 236 239 243 241 238 237 233 233 236 239 232 241 239
315 315 316 316 315 314 315 316 315 313 320 318 324 327 325 322 319 318 314 292 268 257 251 242 238 241 234 233 231 227 230 235 232 237 236 235 238 233 232 236 236 239 241
319 320 317 316 316 317 322 321 320 325 323 325 328 329 330 328 324 321 319 299 276 258 253 245 231 231 231 230 223 218 225 228 224 233 236 231 239 237 240 240 237 236 238
320 319 318 315 317 319 323 323 323 324 325 328 329 334 338 338 335 327 325 308 291 269 248 231 229 221 220 213 207 213 218 211 215 224 229 217 231 233 234 236 238 238 239